OBJECT WK

基本信息
目录编号:
59560
目录名称:
OBJECT WK
国际标识:
1998-067WK
轨道中心:
EARTH
物体状态:
已陨落(2024-08-01)
发射日期:
1998-11-20 UTC
国别:
(TBD)
轨道信息
数据来源: 国际轨道数据
星历时间: 2024-08-01T11:27:08+0800
半长轴: 6592.469km
偏心率: 0.0011957
轨道倾角: 51.616°
近地点辐角: 251.380°
升交点赤经: 78.994°
平近点角: 108.592°
近地点: 206.451km
远地点: 222.217km
周期: 88.783分钟
每日圈数: 16.219247
详细信息
发射场:
TTMTR
轨道高度:
LEO
数据来源:
AOE Integration Group
参考系:
TEME
时间系统:
UTC
历元类型:
SGP4
2D轨道图
3D轨道图
轨道高度分析图
轨道倾角分析图
轨道综合分析图
查看轨道综合分析图